Private Wetterstation Wechselburg
Wetterdaten: Dienstag, 12.07.2011
Datum Zeit Temp. +2m Bodentemp. Temp.+5cm Temp. Wind Windchill X Diff Temp. Feuchte +2m Feuchte +5cm Sonnenschein Luftdruck Regen Wind Richtung Richtung Sonnenschein UV Taupunkt Windchill Windben
12.07.2011 00:00 17,3 C 22,0 C 15,3 C 15,9 C 13,1 C 0,0 C 80 % 88 % 0 % 1016,2 hPa 0,0 l/m 0,0 km/h (0 Bft) SW 225 0 min 0,0 UV-I 13,8 C 13,1 C 0,0 km/h (0 Bft)
12.07.2011 00:11 17,1 C 22,0 C 15,1 C 15,7 C 12,9 C 0,0 C 80 % 88 % 0 % 1016,2 hPa 0,0 l/m 0,0 km/h (0 Bft) N 0 0 min 0,0 UV-I 13,6 C 12,9 C 0,0 km/h (0 Bft)
12.07.2011 00:15 16,7 C 22,0 C 14,9 C 15,4 C 12,9 C 0,0 C 81 % 88 % 0 % 1016,2 hPa 0,0 l/m 0,0 km/h (0 Bft) SW 225 0 min 0,0 UV-I 13,4 C 12,9 C 0,0 km/h (0 Bft)
12.07.2011 00:20 16,8 C 22,0 C 14,9 C 15,5 C 12,9 C 0,0 C 81 % 88 % 0 % 1016,2 hPa 0,0 l/m 0,0 km/h (0 Bft) SW 225 0 min 0,0 UV-I 13,5 C 12,9 C 0,0 km/h (0 Bft)
12.07.2011 00:25 16,8 C 22,0 C 15,0 C 15,5 C 12,8 C 0,0 C 81 % 89 % 0 % 1016,2 hPa 0,0 l/m 0,0 km/h (0 Bft) W 270 0 min 0,0 UV-I 13,5 C 12,8 C 0,0 km/h (0 Bft)
12.07.2011 00:30 16,8 C 21,9 C 14,9 C 15,4 C 12,7 C 0,0 C 82 % 88 % 0 % 1016,2 hPa 0,0 l/m 0,0 km/h (0 Bft) W-SW 247 0 min 0,0 UV-I 13,7 C 12,7 C 0,0 km/h (0 Bft)
12.07.2011 00:35 16,7 C 21,9 C 14,8 C 15,3 C 12,6 C 0,0 C 81 % 89 % 0 % 1016,2 hPa 0,0 l/m 0,0 km/h (0 Bft) W-SW 247 0 min 0,0 UV-I 13,4 C 12,6 C 0,0 km/h (0 Bft)
12.07.2011 00:40 16,7 C 21,9 C 14,9 C 15,3 C 12,6 C 0,0 C 82 % 89 % 0 % 1016,2 hPa 0,0 l/m 0,0 km/h (0 Bft) W-SW 247 0 min 0,0 UV-I 13,6 C 12,6 C 0,0 km/h (0 Bft)
12.07.2011 00:45 16,6 C 21,9 C 14,7 C 15,3 C 12,6 C 0,0 C 82 % 89 % 0 % 1016,2 hPa 0,0 l/m 0,0 km/h (0 Bft) W-SW 247 0 min 0,0 UV-I 13,5 C 12,6 C 0,0 km/h (0 Bft)
12.07.2011 00:50 16,5 C 21,9 C 14,7 C 15,2 C 12,5 C 0,0 C 82 % 89 % 0 % 1016,2 hPa 0,0 l/m 0,0 km/h (0 Bft) SW 225 0 min 0,0 UV-I 13,4 C 12,5 C 0,0 km/h (0 Bft)
12.07.2011 00:55 16,5 C 21,9 C 14,6 C 15,1 C 12,4 C 0,0 C 82 % 89 % 0 % 1016,2 hPa 0,0 l/m 0,0 km/h (0 Bft) SW 225 0 min 0,0 UV-I 13,4 C 12,4 C 0,0 km/h (0 Bft)
12.07.2011 01:00 16,4 C 21,9 C 14,5 C 15,1 C 12,4 C 0,0 C 82 % 89 % 0 % 1016,2 hPa 0,0 l/m 0,0 km/h (0 Bft) W-SW 247 0 min 0,0 UV-I 13,3 C 12,4 C 0,0 km/h (0 Bft)
12.07.2011 01:10 16,2 C 21,8 C 14,4 C 14,9 C 12,3 C 0,0 C 82 % 89 % 0 % 1016,5 hPa 0,0 l/m 0,0 km/h (0 Bft) N 0 0 min 0,0 UV-I 13,1 C 12,3 C 0,0 km/h (0 Bft)
12.07.2011 01:15 16,3 C 21,8 C 14,4 C 14,9 C 12,2 C 0,0 C 81 % 89 % 0 % 1016,5 hPa 0,0 l/m 0,0 km/h (0 Bft) W 270 0 min 0,0 UV-I 13,0 C 12,2 C 0,0 km/h (0 Bft)
12.07.2011 01:20 16,1 C 21,9 C 14,2 C 14,8 C 12,2 C 0,0 C 82 % 89 % 0 % 1016,5 hPa 0,0 l/m 0,0 km/h (0 Bft) W 270 0 min 0,0 UV-I 13,0 C 12,2 C 0,0 km/h (0 Bft)
12.07.2011 01:25 16,0 C 21,8 C 14,3 C 14,7 C 12,2 C 0,0 C 82 % 89 % 0 % 1016,5 hPa 0,0 l/m 0,0 km/h (0 Bft) W-SW 247 0 min 0,0 UV-I 12,9 C 12,2 C 0,0 km/h (0 Bft)
12.07.2011 01:30 16,1 C 21,8 C 14,3 C 14,8 C 12,2 C 0,0 C 82 % 89 % 0 % 1016,5 hPa 0,0 l/m 0,0 km/h (0 Bft) W 270 0 min 0,0 UV-I 13,0 C 12,2 C 0,0 km/h (0 Bft)
12.07.2011 01:35 16,0 C 21,8 C 14,3 C 14,7 C 12,2 C 0,0 C 82 % 89 % 0 % 1016,5 hPa 0,0 l/m 0,0 km/h (0 Bft) W 270 0 min 0,0 UV-I 12,9 C 12,2 C 0,0 km/h (0 Bft)
12.07.2011 01:40 15,9 C 21,8 C 14,1 C 14,7 C 12,2 C 0,0 C 82 % 89 % 0 % 1016,5 hPa 0,0 l/m 0,0 km/h (0 Bft) W 270 0 min 0,0 UV-I 12,8 C 12,2 C 0,0 km/h (0 Bft)
12.07.2011 01:45 15,9 C 21,8 C 14,0 C 14,7 C 12,2 C 0,0 C 82 % 89 % 0 % 1016,5 hPa 0,0 l/m 0,0 km/h (0 Bft) W 270 0 min 0,0 UV-I 12,8 C 12,2 C 0,0 km/h (0 Bft)
12.07.2011 01:50 15,9 C 21,8 C 14,0 C 14,6 C 12,1 C 0,0 C 82 % 89 % 0 % 1016,5 hPa 0,0 l/m 0,0 km/h (0 Bft) W 270 0 min 0,0 UV-I 12,8 C 12,1 C 0,0 km/h (0 Bft)
12.07.2011 01:55 15,7 C 21,8 C 14,0 C 14,5 C 12,0 C 0,0 C 83 % 89 % 0 % 1016,5 hPa 0,0 l/m 0,0 km/h (0 Bft) W 270 0 min 0,0 UV-I 12,8 C 12,0 C 0,0 km/h (0 Bft)
12.07.2011 02:00 15,6 C 21,8 C 13,9 C 14,4 C 12,0 C 0,0 C 83 % 89 % 0 % 1016,5 hPa 0,0 l/m 0,0 km/h (0 Bft) W 270 0 min 0,0 UV-I 12,7 C 12,0 C 0,0 km/h (0 Bft)
12.07.2011 02:10 15,3 C 21,8 C 13,7 C 14,2 C 12,0 C 0,0 C 83 % 89 % 0 % 1016,6 hPa 0,0 l/m 0,0 km/h (0 Bft) N 0 0 min 0,0 UV-I 12,4 C 12,0 C 0,0 km/h (0 Bft)
12.07.2011 02:15 15,3 C 21,8 C 13,6 C 14,2 C 12,0 C 0,0 C 84 % 89 % 0 % 1016,6 hPa 0,0 l/m 0,0 km/h (0 Bft) SW 225 0 min 0,0 UV-I 12,6 C 12,0 C 0,0 km/h (0 Bft)
12.07.2011 02:20 15,1 C 21,8 C 13,6 C 14,1 C 12,1 C 0,0 C 84 % 89 % 0 % 1016,6 hPa 0,0 l/m 0,0 km/h (0 Bft) SW 225 0 min 0,0 UV-I 12,4 C 12,1 C 0,0 km/h (0 Bft)
12.07.2011 02:25 15,1 C 21,8 C 13,7 C 14,1 C 12,2 C 0,0 C 84 % 90 % 0 % 1016,6 hPa 0,0 l/m 0,0 km/h (0 Bft) SW 225 0 min 0,0 UV-I 12,4 C 12,2 C 0,0 km/h (0 Bft)
12.07.2011 02:30 15,2 C 21,7 C 13,7 C 14,1 C 12,0 C 0,0 C 84 % 90 % 0 % 1016,4 hPa 0,0 l/m 0,0 km/h (0 Bft) W-SW 247 0 min 0,0 UV-I 12,5 C 12,0 C 0,0 km/h (0 Bft)
12.07.2011 02:35 15,2 C 21,6 C 13,7 C 14,1 C 11,8 C 0,0 C 84 % 90 % 0 % 1016,4 hPa 0,0 l/m 0,0 km/h (0 Bft) W-SW 247 0 min 0,0 UV-I 12,5 C 11,8 C 0,0 km/h (0 Bft)
12.07.2011 02:40 15,2 C 21,7 C 13,6 C 14,0 C 11,7 C 0,0 C 83 % 90 % 0 % 1016,4 hPa 0,0 l/m 0,0 km/h (0 Bft) W 270 0 min 0,0 UV-I 12,3 C 11,7 C 0,0 km/h (0 Bft)
12.07.2011 02:45 14,9 C 21,7 C 13,5 C 13,8 C 11,7 C 0,0 C 83 % 90 % 0 % 1016,4 hPa 0,0 l/m 0,0 km/h (0 Bft) W 270 0 min 0,0 UV-I 12,0 C 11,7 C 0,0 km/h (0 Bft)
12.07.2011 02:50 14,8 C 21,6 C 13,5 C 13,8 C 11,8 C 0,0 C 84 % 90 % 0 % 1016,5 hPa 0,0 l/m 0,0 km/h (0 Bft) W 270 0 min 0,0 UV-I 12,1 C 11,8 C 0,0 km/h (0 Bft)
12.07.2011 02:55 14,9 C 21,7 C 13,5 C 13,8 C 11,6 C 0,0 C 84 % 90 % 0 % 1016,5 hPa 0,0 l/m 0,0 km/h (0 Bft) W 270 0 min 0,0 UV-I 12,2 C 11,6 C 0,0 km/h (0 Bft)
12.07.2011 03:00 15,0 C 21,6 C 13,5 C 13,9 C 11,6 C 0,0 C 84 % 90 % 0 % 1016,5 hPa 0,0 l/m 0,0 km/h (0 Bft) SW 225 0 min 0,0 UV-I 12,3 C 11,6 C 0,0 km/h (0 Bft)
12.07.2011 03:10 15,1 C 21,6 C 13,4 C 13,9 C 11,5 C 0,0 C 84 % 90 % 0 % 1016,3 hPa 0,0 l/m 0,0 km/h (0 Bft) N 0 0 min 0,0 UV-I 12,4 C 11,5 C 0,0 km/h (0 Bft)
12.07.2011 03:15 14,9 C 21,7 C 13,3 C 13,7 C 11,4 C 0,0 C 83 % 90 % 0 % 1016,3 hPa 0,0 l/m 0,0 km/h (0 Bft) SW 225 0 min 0,0 UV-I 12,0 C 11,4 C 0,0 km/h (0 Bft)
12.07.2011 03:20 14,7 C 21,7 C 13,2 C 13,6 C 11,3 C 0,0 C 83 % 90 % 0 % 1016,3 hPa 0,0 l/m 0,0 km/h (0 Bft) W 270 0 min 0,0 UV-I 11,8 C 11,3 C 0,0 km/h (0 Bft)
12.07.2011 03:25 14,7 C 21,7 C 13,1 C 13,6 C 11,3 C 0,0 C 84 % 90 % 0 % 1016,3 hPa 0,0 l/m 0,0 km/h (0 Bft) W 270 0 min 0,0 UV-I 12,0 C 11,3 C 0,0 km/h (0 Bft)
12.07.2011 03:30 14,6 C 21,7 C 13,2 C 13,5 C 11,2 C 0,0 C 84 % 90 % 0 % 1016,4 hPa 0,0 l/m 0,0 km/h (0 Bft) W 270 0 min 0,0 UV-I 11,9 C 11,2 C 0,0 km/h (0 Bft)
12.07.2011 03:35 14,7 C 21,7 C 13,1 C 13,5 C 11,2 C 0,0 C 84 % 90 % 0 % 1016,4 hPa 0,0 l/m 0,0 km/h (0 Bft) W 270 0 min 0,0 UV-I 12,0 C 11,2 C 0,0 km/h (0 Bft)
12.07.2011 03:40 14,7 C 21,6 C 13,1 C 13,5 C 11,2 C 0,0 C 84 % 90 % 0 % 1016,4 hPa 0,0 l/m 0,0 km/h (0 Bft) W 270 0 min 0,0 UV-I 12,0 C 11,2 C 0,0 km/h (0 Bft)
12.07.2011 03:45 14,7 C 21,6 C 13,2 C 13,5 C 11,1 C 0,0 C 84 % 90 % 0 % 1016,4 hPa 0,0 l/m 0,0 km/h (0 Bft) W 270 0 min 0,0 UV-I 12,0 C 11,1 C 0,0 km/h (0 Bft)
12.07.2011 03:50 14,6 C 21,6 C 13,1 C 13,4 C 11,0 C 0,0 C 83 % 90 % 0 % 1016,5 hPa 0,0 l/m 0,0 km/h (0 Bft) W 270 0 min 0,0 UV-I 11,7 C 11,0 C 0,0 km/h (0 Bft)
12.07.2011 03:55 14,5 C 21,6 C 13,1 C 13,3 C 10,9 C 0,0 C 84 % 90 % 0 % 1016,5 hPa 0,0 l/m 0,0 km/h (0 Bft) W 270 0 min 0,0 UV-I 11,8 C 10,9 C 0,0 km/h (0 Bft)
12.07.2011 04:00 14,5 C 21,6 C 13,1 C 13,3 C 10,9 C 0,0 C 84 % 90 % 0 % 1016,5 hPa 0,0 l/m 0,0 km/h (0 Bft) W 270 0 min 0,0 UV-I 11,8 C 10,9 C 0,0 km/h (0 Bft)
12.07.2011 04:10 14,5 C 21,5 C 12,8 C 13,3 C 11,0 C 0,0 C 84 % 90 % 0 % 1016,8 hPa 0,0 l/m 0,0 km/h (0 Bft) N 0 0 min 0,0 UV-I 11,8 C 11,0 C 0,0 km/h (0 Bft)
12.07.2011 04:15 14,3 C 21,5 C 12,8 C 13,2 C 10,9 C 0,0 C 84 % 90 % 0 % 1016,8 hPa 0,0 l/m 0,0 km/h (0 Bft) W 270 0 min 0,0 UV-I 11,6 C 10,9 C 0,0 km/h (0 Bft)
12.07.2011 04:20 14,4 C 21,5 C 12,9 C 13,2 C 10,9 C 0,0 C 84 % 90 % 0 % 1016,8 hPa 0,0 l/m 0,0 km/h (0 Bft) W 270 0 min 0,0 UV-I 11,7 C 10,9 C 0,0 km/h (0 Bft)
12.07.2011 04:25 14,1 C 21,5 C 12,7 C 13,0 C 10,9 C 0,0 C 83 % 90 % 0 % 1016,8 hPa 0,0 l/m 0,0 km/h (0 Bft) O-SO 112 0 min 0,0 UV-I 11,3 C 10,9 C 0,0 km/h (0 Bft)
12.07.2011 04:30 14,1 C 21,5 C 12,7 C 13,0 C 10,9 C 0,0 C 84 % 90 % 0 % 1017,1 hPa 0,0 l/m 0,0 km/h (0 Bft) O-SO 112 0 min 0,0 UV-I 11,4 C 10,9 C 0,0 km/h (0 Bft)
12.07.2011 04:35 14,1 C 21,5 C 12,8 C 13,0 C 10,9 C 0,0 C 85 % 91 % 0 % 1017,1 hPa 0,0 l/m 0,0 km/h (0 Bft) W-SW 247 0 min 0,0 UV-I 11,6 C 10,9 C 0,0 km/h (0 Bft)
12.07.2011 04:40 14,3 C 21,5 C 12,8 C 13,2 C 10,9 C 0,0 C 85 % 91 % 0 % 1017,1 hPa 0,0 l/m 0,0 km/h (0 Bft) W-SW 247 0 min 0,0 UV-I 11,8 C 10,9 C 0,0 km/h (0 Bft)
12.07.2011 04:45 14,1 C 21,4 C 12,9 C 13,0 C 10,7 C 0,0 C 85 % 91 % 0 % 1017,1 hPa 0,0 l/m 0,0 km/h (0 Bft) W-SW 247 0 min 0,0 UV-I 11,6 C 10,7 C 0,0 km/h (0 Bft)
12.07.2011 04:50 14,2 C 21,4 C 12,8 C 13,0 C 10,7 C 0,0 C 85 % 90 % 0 % 1016,7 hPa 0,0 l/m 0,0 km/h (0 Bft) W-SW 247 0 min 0,0 UV-I 11,7 C 10,7 C 0,0 km/h (0 Bft)
12.07.2011 04:55 14,2 C 21,4 C 12,7 C 13,0 C 10,7 C 0,0 C 84 % 90 % 0 % 1016,7 hPa 0,0 l/m 0,0 km/h (0 Bft) W-SW 247 0 min 0,0 UV-I 11,5 C 10,7 C 0,0 km/h (0 Bft)
12.07.2011 05:00 14,1 C 21,4 C 12,7 C 13,0 C 10,7 C 0,0 C 84 % 90 % 0 % 1016,7 hPa 0,0 l/m 0,0 km/h (0 Bft) W-SW 247 0 min 0,0 UV-I 11,4 C 10,7 C 0,0 km/h (0 Bft)
12.07.2011 05:11 13,8 C 21,4 C 12,5 C 12,8 C 10,7 C 0,0 C 85 % 90 % 0 % 1017,1 hPa 0,0 l/m 0,0 km/h (0 Bft) N 0 0 min 0,0 UV-I 11,3 C 10,7 C 0,0 km/h (0 Bft)
12.07.2011 05:15 14,0 C 21,3 C 12,7 C 12,9 C 10,6 C 0,0 C 85 % 90 % 0 % 1017,1 hPa 0,0 l/m 0,0 km/h (0 Bft) W-SW 247 0 min 0,0 UV-I 11,5 C 10,6 C 0,0 km/h (0 Bft)
12.07.2011 05:20 14,0 C 21,3 C 12,6 C 12,9 C 10,6 C 0,0 C 85 % 90 % 0 % 1017,1 hPa 0,0 l/m 0,0 km/h (0 Bft) W-SW 247 0 min 0,0 UV-I 11,5 C 10,6 C 0,0 km/h (0 Bft)
12.07.2011 05:25 14,1 C 21,3 C 12,5 C 12,9 C 10,5 C 0,0 C 85 % 90 % 0 % 1017,1 hPa 0,0 l/m 0,0 km/h (0 Bft) W-SW 247 0 min 0,0 UV-I 11,6 C 10,5 C 0,0 km/h (0 Bft)
12.07.2011 05:30 14,1 C 21,3 C 12,5 C 12,9 C 10,5 C 0,0 C 85 % 90 % 0 % 1016,8 hPa 0,0 l/m 0,0 km/h (0 Bft) W-SW 247 0 min 0,0 UV-I 11,6 C 10,5 C 0,0 km/h (0 Bft)
12.07.2011 05:35 13,9 C 21,3 C 12,4 C 12,8 C 10,5 C 0,0 C 85 % 90 % 0 % 1016,8 hPa 0,0 l/m 0,0 km/h (0 Bft) W-SW 247 0 min 0,0 UV-I 11,4 C 10,5 C 0,0 km/h (0 Bft)
12.07.2011 05:40 13,8 C 21,3 C 12,5 C 12,7 C 10,5 C 0,0 C 85 % 91 % 0 % 1016,8 hPa 0,0 l/m 0,0 km/h (0 Bft) W-SW 247 0 min 0,0 UV-I 11,3 C 10,5 C 0,0 km/h (0 Bft)
12.07.2011 05:45 13,8 C 21,3 C 12,3 C 12,7 C 10,6 C 0,0 C 84 % 90 % 0 % 1016,8 hPa 0,0 l/m 0,0 km/h (0 Bft) W-SW 247 0 min 0,0 UV-I 11,1 C 10,6 C 0,0 km/h (0 Bft)
12.07.2011 05:50 13,7 C 21,3 C 12,3 C 12,7 C 10,6 C 0,0 C 85 % 90 % 0 % 1016,9 hPa 0,0 l/m 0,0 km/h (0 Bft) W-SW 247 0 min 0,0 UV-I 11,2 C 10,6 C 0,0 km/h (0 Bft)
12.07.2011 05:55 13,6 C 21,3 C 12,3 C 12,6 C 10,7 C 0,0 C 85 % 90 % 0 % 1016,9 hPa 0,0 l/m 0,0 km/h (0 Bft) W-SW 247 0 min 0,0 UV-I 11,1 C 10,7 C 0,0 km/h (0 Bft)
12.07.2011 06:00 13,6 C 21,3 C 12,4 C 12,7 C 10,8 C 0,0 C 85 % 91 % 0 % 1016,9 hPa 0,0 l/m 0,0 km/h (0 Bft) W-SW 247 0 min 0,0 UV-I 11,1 C 10,8 C 0,0 km/h (0 Bft)
12.07.2011 06:10 14,0 C 21,2 C 12,7 C 13,0 C 11,0 C 0,0 C 86 % 91 % 0 % 1016,6 hPa 0,0 l/m 0,0 km/h (0 Bft) N 0 0 min 0,0 UV-I 11,7 C 11,0 C 0,0 km/h (0 Bft)
12.07.2011 06:15 14,1 C 21,2 C 12,5 C 13,1 C 11,2 C 0,0 C 85 % 91 % 0 % 1016,6 hPa 0,0 l/m 0,0 km/h (0 Bft) W-SW 247 0 min 0,0 UV-I 11,6 C 11,2 C 0,0 km/h (0 Bft)
12.07.2011 06:20 14,1 C 21,2 C 12,5 C 13,1 C 11,2 C 0,0 C 85 % 91 % 0 % 1016,6 hPa 0,0 l/m 0,0 km/h (0 Bft) W-SW 247 0 min 0,0 UV-I 11,6 C 11,2 C 0,0 km/h (0 Bft)
12.07.2011 06:25 14,1 C 21,2 C 12,7 C 13,2 C 11,4 C 0,0 C 85 % 91 % 0 % 1016,6 hPa 0,0 l/m 0,0 km/h (0 Bft) W-SW 247 0 min 0,0 UV-I 11,6 C 11,4 C 0,0 km/h (0 Bft)
12.07.2011 06:30 14,1 C 21,2 C 12,7 C 13,2 C 11,5 C 0,0 C 85 % 91 % 0 % 1016,2 hPa 0,0 l/m 0,0 km/h (0 Bft) O 90 0 min 0,0 UV-I 11,6 C 11,5 C 0,0 km/h (0 Bft)
12.07.2011 06:35 14,5 C 21,1 C 12,9 C 13,6 C 11,9 C 0,0 C 86 % 92 % 0 % 1016,2 hPa 0,0 l/m 0,0 km/h (0 Bft) SW 225 0 min 0,0 UV-I 12,2 C 11,9 C 0,0 km/h (0 Bft)
12.07.2011 06:40 14,7 C 21,1 C 13,1 C 13,8 C 12,0 C 0,0 C 85 % 92 % 0 % 1016,2 hPa 0,0 l/m 0,0 km/h (0 Bft) SW 225 0 min 0,0 UV-I 12,2 C 12,0 C 0,0 km/h (0 Bft)
12.07.2011 06:45 15,2 C 21,0 C 13,2 C 14,2 C 12,2 C 0,0 C 84 % 91 % 0 % 1016,2 hPa 0,0 l/m 0,0 km/h (0 Bft) SW 225 0 min 0,0 UV-I 12,5 C 12,2 C 0,0 km/h (0 Bft)
12.07.2011 06:50 15,2 C 21,0 C 13,3 C 14,2 C 12,3 C 0,0 C 84 % 91 % 0 % 1016,2 hPa 0,0 l/m 0,0 km/h (0 Bft) SW 225 0 min 0,1 UV-I 12,5 C 12,3 C 0,0 km/h (0 Bft)
12.07.2011 06:55 17,0 C 21,1 C 13,5 C 15,5 C 12,4 C 0,0 C 82 % 91 % 0 % 1016,2 hPa 0,0 l/m 0,0 km/h (0 Bft) W-SW 247 0 min 0,1 UV-I 13,9 C 12,4 C 0,0 km/h (0 Bft)
12.07.2011 07:00 17,5 C 21,1 C 13,6 C 16,0 C 13,0 C 0,0 C 79 % 91 % 0 % 1016,2 hPa 0,0 l/m 0,0 km/h (0 Bft) W-SW 247 0 min 0,3 UV-I 13,8 C 13,0 C 0,0 km/h (0 Bft)
12.07.2011 07:10 16,7 C 20,9 C 14,5 C 16,6 C 16,5 C 0,0 C 80 % 91 % 0 % 1016,2 hPa 0,0 l/m 0,0 km/h (0 Bft) N 0 0 min 2,0 UV-I 13,2 C 16,5 C 0,0 km/h (0 Bft)
12.07.2011 07:15 16,7 C 20,9 C 14,3 C 17,7 C 17,7 C 1,0 C 80 % 90 % 26 % 1016,2 hPa 0,0 l/m 0,0 km/h (0 Bft) W-SW 247 0 min 0,3 UV-I 13,2 C 17,7 C 0,0 km/h (0 Bft)
12.07.2011 07:20 16,8 C 20,9 C 14,2 C 18,6 C 18,6 C 1,8 C 80 % 90 % 47 % 1016,2 hPa 0,0 l/m 0,0 km/h (0 Bft) W 270 0 min 0,3 UV-I 13,3 C 18,6 C 0,0 km/h (0 Bft)
12.07.2011 07:25 16,6 C 20,9 C 14,3 C 19,8 C 19,8 C 3,2 C 81 % 90 % 84 % 1016,2 hPa 0,0 l/m 0,0 km/h (0 Bft) W 270 5 min 0,0 UV-I 13,3 C 19,8 C 0,0 km/h (0 Bft)
12.07.2011 07:30 16,7 C 20,9 C 14,3 C 20,5 C 20,5 C 3,8 C 81 % 90 % 100 % 1016,1 hPa 0,0 l/m 0,0 km/h (0 Bft) W 270 5 min 0,0 UV-I 13,4 C 20,5 C 0,0 km/h (0 Bft)
12.07.2011 07:35 16,8 C 20,9 C 14,4 C 21,4 C 21,4 C 4,6 C 81 % 91 % 100 % 1016,1 hPa 0,0 l/m 0,0 km/h (0 Bft) SW 225 5 min 0,7 UV-I 13,5 C 21,4 C 0,0 km/h (0 Bft)
12.07.2011 07:40 16,9 C 20,9 C 14,4 C 22,1 C 22,1 C 5,2 C 81 % 90 % 100 % 1016,1 hPa 0,0 l/m 0,0 km/h (0 Bft) SW 225 5 min 0,0 UV-I 13,6 C 22,1 C 0,0 km/h (0 Bft)
12.07.2011 07:45 17,1 C 20,8 C 14,4 C 22,6 C 22,6 C 5,5 C 81 % 90 % 100 % 1016,1 hPa 0,0 l/m 0,0 km/h (0 Bft) W-SW 247 5 min 1,4 UV-I 13,8 C 22,6 C 0,0 km/h (0 Bft)
12.07.2011 07:50 17,2 C 20,9 C 14,4 C 22,6 C 22,6 C 5,4 C 80 % 91 % 100 % 1016,1 hPa 0,0 l/m 0,0 km/h (0 Bft) SW 225 5 min 0,4 UV-I 13,7 C 22,6 C 0,0 km/h (0 Bft)
12.07.2011 07:55 17,5 C 20,8 C 14,7 C 22,7 C 22,7 C 5,2 C 80 % 91 % 100 % 1016,1 hPa 0,0 l/m 0,0 km/h (0 Bft) W 270 5 min 0,4 UV-I 14,0 C 22,7 C 0,0 km/h (0 Bft)
12.07.2011 08:00 19,2 C 20,8 C 14,7 C 23,5 C 23,5 C 4,3 C 78 % 91 % 100 % 1016,1 hPa 0,0 l/m 0,0 km/h (0 Bft) W 270 5 min 0,4 UV-I 15,3 C 23,5 C 0,0 km/h (0 Bft)
12.07.2011 08:10 18,6 C 20,8 C 15,0 C 25,6 C 25,6 C 7,0 C 77 % 91 % 100 % 1015,8 hPa 0,0 l/m 0,0 km/h (0 Bft) N 0 10 min 0,4 UV-I 14,5 C 25,6 C 0,0 km/h (0 Bft)
12.07.2011 08:15 18,5 C 20,9 C 15,1 C 26,4 C 26,4 C 7,9 C 77 % 91 % 100 % 1015,8 hPa 0,0 l/m 0,0 km/h (0 Bft) W 270 5 min 0,4 UV-I 14,4 C 26,4 C 0,0 km/h (0 Bft)
12.07.2011 08:20 18,8 C 20,9 C 15,2 C 26,7 C 26,7 C 7,9 C 78 % 91 % 100 % 1015,8 hPa 0,0 l/m 0,0 km/h (0 Bft) W-SW 247 5 min 0,4 UV-I 14,9 C 26,7 C 0,0 km/h (0 Bft)
12.07.2011 08:25 21,5 C 20,8 C 15,5 C 27,3 C 27,3 C 5,8 C 74 % 91 % 100 % 1015,8 hPa 0,0 l/m 0,0 km/h (0 Bft) W 270 5 min 0,5 UV-I 16,7 C 27,3 C 0,0 km/h (0 Bft)
12.07.2011 08:30 21,8 C 20,8 C 15,5 C 27,6 C 27,6 C 5,8 C 71 % 91 % 100 % 1015,7 hPa 0,0 l/m 0,0 km/h (0 Bft) NW 315 5 min 0,5 UV-I 16,3 C 27,6 C 0,0 km/h (0 Bft)
12.07.2011 08:35 23,2 C 20,8 C 15,9 C 28,2 C 28,2 C 5,0 C 69 % 91 % 100 % 1015,7 hPa 0,0 l/m 0,0 km/h (0 Bft) SW 225 5 min 0,5 UV-I 17,2 C 28,2 C 0,0 km/h (0 Bft)
12.07.2011 08:40 23,9 C 20,8 C 15,9 C 28,4 C 28,4 C 4,5 C 66 % 91 % 100 % 1015,7 hPa 0,0 l/m 0,0 km/h (0 Bft) W-SW 247 5 min 0,6 UV-I 17,1 C 28,4 C 0,0 km/h (0 Bft)
12.07.2011 08:45 22,4 C 20,8 C 16,1 C 28,8 C 28,8 C 6,4 C 68 % 91 % 100 % 1015,7 hPa 0,0 l/m 0,0 km/h (0 Bft) W-SW 247 5 min 0,6 UV-I 16,2 C 28,8 C 0,0 km/h (0 Bft)
12.07.2011 08:50 21,8 C 20,8 C 16,3 C 28,8 C 28,8 C 7,0 C 69 % 91 % 100 % 1016,1 hPa 0,0 l/m 0,0 km/h (0 Bft) S-SO 157 5 min 0,7 UV-I 15,9 C 28,8 C 0,0 km/h (0 Bft)
12.07.2011 08:55 21,5 C 20,8 C 16,4 C 28,6 C 28,6 C 7,1 C 70 % 91 % 100 % 1016,1 hPa 0,0 l/m 0,2 km/h (0 Bft) SW 225 5 min 0,7 UV-I 15,8 C 28,6 C 2,1 km/h (1 Bft)
12.07.2011 09:00 22,3 C 20,8 C 16,7 C 28,4 C 28,4 C 6,1 C 69 % 92 % 100 % 1016,1 hPa 0,0 l/m 0,2 km/h (0 Bft) SW 225 5 min 0,8 UV-I 16,3 C 28,4 C 2,6 km/h (1 Bft)
12.07.2011 09:10 21,7 C 20,8 C 17,0 C 29,0 C 29,0 C 7,3 C 70 % 91 % 100 % 1015,9 hPa 0,0 l/m 0,3 km/h (0 Bft) N 0 10 min 0,9 UV-I 16,0 C 29,0 C 0,0 km/h (0 Bft)
12.07.2011 09:15 21,3 C 20,8 C 17,3 C 28,5 C 28,5 C 7,2 C 71 % 90 % 100 % 1015,9 hPa 0,0 l/m 0,3 km/h (0 Bft) O-NO 67 5 min 0,8 UV-I 15,8 C 28,5 C 0,0 km/h (0 Bft)
12.07.2011 09:20 21,2 C 20,8 C 17,5 C 27,8 C 27,8 C 6,6 C 72 % 90 % 100 % 1015,9 hPa 0,0 l/m 0,6 km/h (0 Bft) SW 225 5 min 0,8 UV-I 15,9 C 27,8 C 2,4 km/h (1 Bft)
12.07.2011 09:25 21,2 C 20,8 C 17,6 C 28,3 C 28,3 C 7,1 C 72 % 89 % 100 % 1015,9 hPa 0,0 l/m 0,5 km/h (0 Bft) N-NO 22 5 min 0,9 UV-I 15,9 C 28,3 C 3,2 km/h (1 Bft)
12.07.2011 09:30 21,2 C 20,8 C 17,8 C 28,8 C 28,8 C 7,6 C 71 % 88 % 100 % 1015,6 hPa 0,0 l/m 0,3 km/h (0 Bft) NW 315 5 min 1,0 UV-I 15,7 C 28,8 C 0,0 km/h (0 Bft)
12.07.2011 09:35 21,2 C 20,8 C 17,9 C 29,8 C 29,8 C 8,6 C 70 % 87 % 100 % 1015,6 hPa 0,0 l/m 0,3 km/h (0 Bft) W-SW 247 5 min 1,1 UV-I 15,5 C 29,8 C 2,1 km/h (1 Bft)
12.07.2011 09:40 21,2 C 20,8 C 18,0 C 30,1 C 30,1 C 8,9 C 69 % 87 % 100 % 1015,6 hPa 0,0 l/m 0,3 km/h (0 Bft) NW 315 5 min 1,1 UV-I 15,3 C 30,1 C 0,0 km/h (0 Bft)
12.07.2011 09:45 21,4 C 20,8 C 18,4 C 29,8 C 29,8 C 8,4 C 68 % 85 % 100 % 1015,6 hPa 0,0 l/m 1,0 km/h (0 Bft) O-NO 67 5 min 1,2 UV-I 15,2 C 29,8 C 6,3 km/h (2 Bft)
12.07.2011 09:50 21,5 C 20,8 C 18,3 C 29,2 C 29,2 C 7,7 C 68 % 84 % 100 % 1015,6 hPa 0,0 l/m 1,3 km/h (1 Bft) S-SW 202 5 min 1,1 UV-I 15,3 C 29,2 C 0,0 km/h (0 Bft)
12.07.2011 09:55 21,4 C 20,8 C 18,4 C 29,6 C 29,6 C 8,2 C 67 % 82 % 100 % 1015,6 hPa 0,0 l/m 1,6 km/h (1 Bft) O-NO 67 5 min 0,8 UV-I 15,0 C 29,6 C 6,3 km/h (2 Bft)
12.07.2011 10:00 21,6 C 20,8 C 18,8 C 28,9 C 28,9 C 7,3 C 66 % 80 % 100 % 1015,6 hPa 0,0 l/m 1,6 km/h (1 Bft) O 90 5 min 0,8 UV-I 15,0 C 28,9 C 2,3 km/h (1 Bft)
12.07.2011 10:10 21,8 C 20,8 C 19,3 C 28,2 C 28,2 C 6,4 C 65 % 78 % 100 % 1015,5 hPa 0,0 l/m 2,4 km/h (1 Bft) N 0 10 min 0,8 UV-I 14,9 C 28,2 C 0,0 km/h (0 Bft)
12.07.2011 10:15 21,9 C 20,9 C 19,5 C 28,8 C 28,8 C 6,9 C 63 % 76 % 100 % 1015,5 hPa 0,0 l/m 1,9 km/h (1 Bft) O 90 5 min 0,8 UV-I 14,5 C 28,8 C 2,6 km/h (1 Bft)
12.07.2011 10:20 21,9 C 20,9 C 19,6 C 29,0 C 29,0 C 7,1 C 62 % 74 % 100 % 1015,5 hPa 0,0 l/m 1,8 km/h (1 Bft) O-NO 67 5 min 0,9 UV-I 14,3 C 29,0 C 4,8 km/h (1 Bft)
12.07.2011 10:25 22,3 C 21,0 C 20,1 C 28,2 C 28,2 C 5,9 C 59 % 70 % 100 % 1015,5 hPa 0,0 l/m 3,1 km/h (1 Bft) O-NO 67 5 min 0,8 UV-I 13,9 C 28,2 C 8,4 km/h (2 Bft)
12.07.2011 10:30 22,2 C 21,0 C 19,9 C 28,5 C 28,5 C 6,3 C 60 % 73 % 100 % 1015,3 hPa 0,0 l/m 3,1 km/h (1 Bft) W-SW 247 5 min 0,8 UV-I 14,1 C 28,5 C 0,0 km/h (0 Bft)
12.07.2011 10:35 22,3 C 21,0 C 19,9 C 29,1 C 29,1 C 6,8 C 59 % 72 % 100 % 1015,3 hPa 0,0 l/m 1,1 km/h (1 Bft) O-NO 67 5 min 1,0 UV-I 13,9 C 29,1 C 0,0 km/h (0 Bft)
12.07.2011 10:40 22,5 C 21,0 C 20,2 C 28,8 C 28,8 C 6,3 C 58 % 70 % 100 % 1015,3 hPa 0,0 l/m 2,4 km/h (1 Bft) O-NO 67 5 min 1,6 UV-I 13,8 C 28,8 C 8,7 km/h (2 Bft)
12.07.2011 10:45 22,7 C 21,0 C 20,4 C 28,5 C 28,5 C 5,8 C 58 % 70 % 100 % 1015,3 hPa 0,0 l/m 3,5 km/h (1 Bft) NO 45 5 min 1,8 UV-I 14,0 C 28,5 C 5,5 km/h (1 Bft)
12.07.2011 10:50 22,9 C 21,0 C 20,7 C 28,3 C 28,3 C 5,4 C 53 % 64 % 100 % 1015,4 hPa 0,0 l/m 4,0 km/h (1 Bft) O 90 5 min 1,8 UV-I 12,8 C 28,3 C 10,9 km/h (2 Bft)
12.07.2011 10:55 23,1 C 21,0 C 21,0 C 27,5 C 27,5 C 4,4 C 56 % 66 % 100 % 1015,4 hPa 0,0 l/m 5,5 km/h (1 Bft) O-NO 67 5 min 1,9 UV-I 13,8 C 27,5 C 2,3 km/h (1 Bft)
12.07.2011 11:00 23,0 C 21,1 C 21,1 C 27,8 C 27,8 C 4,8 C 55 % 62 % 100 % 1015,4 hPa 0,0 l/m 4,7 km/h (1 Bft) O 90 5 min 1,9 UV-I 13,5 C 27,8 C 3,1 km/h (1 Bft)
12.07.2011 11:10 23,2 C 21,1 C 21,5 C 27,7 C 27,7 C 4,5 C 54 % 64 % 100 % 1015,2 hPa 0,0 l/m 4,7 km/h (1 Bft) N 0 10 min 1,9 UV-I 13,4 C 27,7 C 11,6 km/h (2 Bft)
12.07.2011 11:15 23,5 C 21,2 C 21,4 C 27,5 C 27,5 C 4,0 C 55 % 65 % 100 % 1015,2 hPa 0,0 l/m 5,3 km/h (1 Bft) O 90 5 min 2,0 UV-I 13,9 C 27,5 C 6,9 km/h (2 Bft)
12.07.2011 11:20 23,4 C 21,2 C 21,7 C 27,6 C 27,6 C 4,2 C 55 % 64 % 100 % 1015,2 hPa 0,0 l/m 4,5 km/h (1 Bft) O-NO 67 5 min 2,1 UV-I 13,8 C 27,6 C 2,6 km/h (1 Bft)
12.07.2011 11:25 23,5 C 21,2 C 21,6 C 28,4 C 28,4 C 4,9 C 56 % 65 % 100 % 1015,2 hPa 0,0 l/m 2,9 km/h (1 Bft) O-NO 67 5 min 2,1 UV-I 14,2 C 28,4 C 1,9 km/h (1 Bft)
12.07.2011 11:30 23,7 C 21,2 C 21,6 C 28,6 C 28,6 C 4,9 C 56 % 64 % 100 % 1015,2 hPa 0,0 l/m 2,7 km/h (1 Bft) O-NO 67 5 min 1,9 UV-I 14,4 C 28,6 C 8,0 km/h (2 Bft)
12.07.2011 11:35 23,7 C 21,2 C 21,6 C 28,3 C 28,3 C 4,6 C 56 % 65 % 100 % 1015,2 hPa 0,0 l/m 3,9 km/h (1 Bft) SW 225 5 min 1,1 UV-I 14,4 C 28,3 C 3,2 km/h (1 Bft)
12.07.2011 11:40 23,9 C 21,2 C 21,7 C 28,5 C 28,5 C 4,6 C 55 % 65 % 100 % 1015,2 hPa 0,0 l/m 4,0 km/h (1 Bft) O 90 5 min 1,1 UV-I 14,3 C 28,5 C 9,3 km/h (2 Bft)
12.07.2011 11:45 24,1 C 21,2 C 22,1 C 28,2 C 28,2 C 4,1 C 56 % 64 % 100 % 1015,2 hPa 0,0 l/m 4,8 km/h (1 Bft) SO 135 5 min 1,1 UV-I 14,8 C 28,2 C 4,8 km/h (1 Bft)
12.07.2011 11:50 24,1 C 21,2 C 22,2 C 28,5 C 28,5 C 4,4 C 55 % 62 % 100 % 1015,1 hPa 0,0 l/m 5,1 km/h (1 Bft) S 180 5 min 1,7 UV-I 14,5 C 28,5 C 6,4 km/h (2 Bft)
12.07.2011 11:55 24,1 C 21,2 C 22,3 C 28,7 C 28,7 C 4,6 C 54 % 60 % 100 % 1015,1 hPa 0,0 l/m 3,7 km/h (1 Bft) O 90 5 min 1,6 UV-I 14,2 C 28,7 C 5,0 km/h (1 Bft)
12.07.2011 12:00 24,3 C 21,3 C 22,4 C 28,6 C 28,6 C 4,3 C 50 % 60 % 100 % 1015,1 hPa 0,0 l/m 3,9 km/h (1 Bft) NO 45 5 min 1,5 UV-I 13,2 C 28,6 C 4,8 km/h (1 Bft)
12.07.2011 12:10 24,3 C 21,4 C 22,7 C 28,1 C 28,1 C 3,8 C 52 % 58 % 100 % 1014,6 hPa 0,0 l/m 5,1 km/h (1 Bft) N 0 10 min 2,3 UV-I 13,8 C 28,1 C 8,2 km/h (2 Bft)
12.07.2011 12:15 24,4 C 21,3 C 22,6 C 28,1 C 28,1 C 3,7 C 49 % 56 % 97 % 1014,6 hPa 0,0 l/m 4,2 km/h (1 Bft) O 90 5 min 2,4 UV-I 13,0 C 28,1 C 2,7 km/h (1 Bft)
12.07.2011 12:20 24,4 C 21,3 C 22,8 C 28,5 C 28,5 C 4,1 C 49 % 56 % 100 % 1014,6 hPa 0,0 l/m 4,3 km/h (1 Bft) O-SO 112 5 min 2,4 UV-I 13,0 C 28,5 C 8,9 km/h (2 Bft)
12.07.2011 12:25 24,3 C 21,4 C 22,9 C 27,8 C 27,8 C 3,5 C 48 % 55 % 92 % 1014,6 hPa 0,0 l/m 5,0 km/h (1 Bft) O-NO 67 5 min 2,0 UV-I 12,6 C 27,8 C 7,4 km/h (2 Bft)
12.07.2011 12:30 24,5 C 21,4 C 22,8 C 27,6 C 27,6 C 3,1 C 49 % 58 % 82 % 1014,4 hPa 0,0 l/m 6,0 km/h (2 Bft) O-NO 67 0 min 2,3 UV-I 13,1 C 27,6 C 6,8 km/h (2 Bft)
12.07.2011 12:35 24,8 C 21,4 C 23,0 C 28,1 C 28,1 C 3,3 C 51 % 55 % 87 % 1014,4 hPa 0,0 l/m 4,8 km/h (1 Bft) O-NO 67 5 min 2,6 UV-I 14,0 C 28,1 C 3,9 km/h (1 Bft)
12.07.2011 12:40 24,9 C 21,5 C 23,3 C 28,7 C 28,7 C 3,8 C 51 % 57 % 100 % 1014,4 hPa 0,0 l/m 4,3 km/h (1 Bft) NO 45 5 min 2,6 UV-I 14,1 C 28,7 C 2,3 km/h (1 Bft)
12.07.2011 12:45 25,0 C 21,5 C 23,3 C 29,0 C 29,0 C 4,0 C 51 % 56 % 100 % 1014,4 hPa 0,0 l/m 4,5 km/h (1 Bft) O 90 5 min 2,5 UV-I 14,1 C 29,0 C 9,3 km/h (2 Bft)
12.07.2011 12:50 24,7 C 21,5 C 23,2 C 28,1 C 28,1 C 3,4 C 47 % 53 % 89 % 1014,6 hPa 0,0 l/m 5,1 km/h (1 Bft) O-NO 67 5 min 2,5 UV-I 12,6 C 28,1 C 3,7 km/h (1 Bft)
12.07.2011 12:55 24,8 C 21,5 C 23,1 C 28,1 C 28,1 C 3,3 C 47 % 53 % 87 % 1014,6 hPa 0,0 l/m 5,0 km/h (1 Bft) O-NO 67 5 min 2,3 UV-I 12,7 C 28,1 C 12,7 km/h (3 Bft)
12.07.2011 13:00 25,1 C 21,6 C 23,3 C 28,3 C 28,3 C 3,2 C 44 % 49 % 84 % 1014,6 hPa 0,0 l/m 3,5 km/h (1 Bft) O-SO 112 0 min 2,5 UV-I 12,0 C 28,3 C 0,0 km/h (0 Bft)
12.07.2011 13:10 25,2 C 21,6 C 23,4 C 29,6 C 29,6 C 4,4 C 46 % 52 % 100 % 1014,1 hPa 0,0 l/m 3,2 km/h (1 Bft) N 0 10 min 2,6 UV-I 12,7 C 29,6 C 3,7 km/h (1 Bft)
12.07.2011 13:15 25,5 C 21,7 C 23,4 C 29,7 C 29,7 C 4,2 C 45 % 51 % 100 % 1014,1 hPa 0,0 l/m 3,5 km/h (1 Bft) NO 45 5 min 2,7 UV-I 12,7 C 29,7 C 4,2 km/h (1 Bft)
12.07.2011 13:20 25,5 C 21,7 C 23,5 C 30,1 C 30,1 C 4,6 C 44 % 52 % 100 % 1014,1 hPa 0,0 l/m 3,2 km/h (1 Bft) O-SO 112 5 min 2,6 UV-I 12,3 C 30,1 C 5,5 km/h (1 Bft)
12.07.2011 13:25 24,8 C 21,7 C 23,3 C 28,5 C 28,5 C 3,7 C 47 % 54 % 97 % 1014,1 hPa 0,0 l/m 4,0 km/h (1 Bft) O-SO 112 5 min 1,6 UV-I 12,7 C 28,5 C 2,6 km/h (1 Bft)
12.07.2011 13:30 24,4 C 21,8 C 23,1 C 27,1 C 27,1 C 2,7 C 48 % 56 % 71 % 1014,0 hPa 0,0 l/m 4,8 km/h (1 Bft) NO 45 0 min 1,1 UV-I 12,7 C 27,1 C 3,4 km/h (1 Bft)
12.07.2011 13:35 24,7 C 21,8 C 23,0 C 26,5 C 26,5 C 1,8 C 46 % 53 % 47 % 1014,0 hPa 0,0 l/m 3,2 km/h (1 Bft) O-NO 67 0 min 1,7 UV-I 12,3 C 26,5 C 6,6 km/h (2 Bft)
12.07.2011 13:40 24,9 C 21,8 C 23,3 C 27,4 C 27,4 C 2,5 C 47 % 53 % 66 % 1014,0 hPa 0,0 l/m 4,3 km/h (1 Bft) O-SO 112 0 min 2,3 UV-I 12,8 C 27,4 C 9,8 km/h (2 Bft)
12.07.2011 13:45 25,1 C 21,8 C 23,5 C 27,7 C 27,7 C 2,6 C 46 % 54 % 68 % 1014,0 hPa 0,0 l/m 5,8 km/h (2 Bft) O-NO 67 0 min 2,3 UV-I 12,7 C 27,7 C 5,1 km/h (1 Bft)
12.07.2011 13:50 24,7 C 21,9 C 23,3 C 27,2 C 27,2 C 2,5 C 46 % 52 % 66 % 1013,8 hPa 0,0 l/m 5,8 km/h (2 Bft) O-SO 112 0 min 1,5 UV-I 12,3 C 27,2 C 8,5 km/h (2 Bft)
12.07.2011 13:55 24,3 C 21,9 C 23,1 C 26,0 C 26,0 C 1,7 C 47 % 54 % 45 % 1013,8 hPa 0,0 l/m 5,3 km/h (1 Bft) O-NO 67 0 min 1,1 UV-I 12,3 C 26,0 C 2,4 km/h (1 Bft)
12.07.2011 14:00 24,5 C 21,9 C 23,0 C 25,9 C 25,9 C 1,4 C 48 % 54 % 37 % 1013,8 hPa 0,0 l/m 5,5 km/h (1 Bft) O 90 0 min 1,5 UV-I 12,8 C 25,9 C 8,5 km/h (2 Bft)
12.07.2011 14:10 24,1 C 21,9 C 22,9 C 25,7 C 25,7 C 1,6 C 48 % 55 % 42 % 1013,7 hPa 0,0 l/m 3,5 km/h (1 Bft) N 0 0 min 1,1 UV-I 12,4 C 25,7 C 1,6 km/h (1 Bft)
12.07.2011 14:15 24,3 C 21,9 C 22,7 C 25,8 C 25,8 C 1,5 C 50 % 57 % 39 % 1013,7 hPa 0,0 l/m 0,6 km/h (0 Bft) NO 45 0 min 1,4 UV-I 13,2 C 25,8 C 3,1 km/h (1 Bft)
12.07.2011 14:20 24,6 C 22,0 C 23,1 C 26,8 C 26,8 C 2,2 C 50 % 58 % 58 % 1013,7 hPa 0,0 l/m 1,3 km/h (1 Bft) O-NO 67 0 min 2,2 UV-I 13,5 C 26,8 C 8,4 km/h (2 Bft)
12.07.2011 14:25 24,4 C 22,0 C 23,1 C 27,0 C 27,0 C 2,6 C 47 % 54 % 68 % 1013,7 hPa 0,0 l/m 5,3 km/h (1 Bft) O-NO 67 0 min 1,6 UV-I 12,3 C 27,0 C 14,0 km/h (3 Bft)
12.07.2011 14:30 24,7 C 22,0 C 23,3 C 26,8 C 26,8 C 2,1 C 46 % 53 % 55 % 1013,3 hPa 0,0 l/m 7,4 km/h (2 Bft) O-NO 67 0 min 1,6 UV-I 12,3 C 26,8 C 4,8 km/h (1 Bft)
12.07.2011 14:35 24,5 C 22,0 C 23,4 C 26,8 C 26,8 C 2,3 C 46 % 52 % 61 % 1013,3 hPa 0,0 l/m 7,6 km/h (2 Bft) O-NO 67 0 min 1,6 UV-I 12,1 C 26,8 C 8,0 km/h (2 Bft)
12.07.2011 14:40 24,3 C 22,0 C 23,2 C 26,0 C 26,0 C 1,7 C 48 % 55 % 45 % 1013,3 hPa 0,0 l/m 6,1 km/h (2 Bft) O 90 0 min 1,6 UV-I 12,6 C 26,0 C 8,9 km/h (2 Bft)
12.07.2011 14:45 24,9 C 22,1 C 23,9 C 27,0 C 27,0 C 2,1 C 49 % 55 % 55 % 1013,3 hPa 0,0 l/m 3,9 km/h (1 Bft) O 90 0 min 1,8 UV-I 13,4 C 27,0 C 6,3 km/h (2 Bft)
12.07.2011 14:50 25,1 C 22,1 C 24,4 C 28,0 C 28,0 C 2,9 C 49 % 55 % 76 % 1013,2 hPa 0,0 l/m 4,5 km/h (1 Bft) O-NO 67 0 min 2,0 UV-I 13,6 C 28,0 C 6,4 km/h (2 Bft)
12.07.2011 14:55 25,1 C 22,0 C 24,3 C 27,9 C 27,9 C 2,8 C 46 % 53 % 74 % 1013,2 hPa 0,0 l/m 4,8 km/h (1 Bft) O-SO 112 0 min 1,6 UV-I 12,7 C 27,9 C 6,4 km/h (2 Bft)
12.07.2011 15:00 24,9 C 22,0 C 24,3 C 28,0 C 28,0 C 3,1 C 47 % 52 % 82 % 1013,2 hPa 0,0 l/m 4,5 km/h (1 Bft) O-NO 67 0 min 1,7 UV-I 12,8 C 28,0 C 4,0 km/h (1 Bft)
12.07.2011 15:09 24,9 C 22,2 C 24,2 C 27,5 C 27,5 C 2,6 C 49 % 53 % 68 % 1013,3 hPa 0,0 l/m 4,2 km/h (1 Bft) N 0 0 min 1,5 UV-I 13,4 C 27,5 C 5,6 km/h (1 Bft)
12.07.2011 15:15 24,8 C 22,2 C 24,0 C 26,9 C 26,9 C 2,1 C 47 % 53 % 55 % 1013,3 hPa 0,0 l/m 5,8 km/h (2 Bft) O-NO 67 0 min 1,2 UV-I 12,7 C 26,9 C 9,5 km/h (2 Bft)
12.07.2011 15:20 25,1 C 22,2 C 24,4 C 27,0 C 27,0 C 1,9 C 46 % 51 % 50 % 1013,3 hPa 0,0 l/m 5,6 km/h (1 Bft) O-NO 67 0 min 1,5 UV-I 12,7 C 27,0 C 4,3 km/h (1 Bft)
12.07.2011 15:25 24,8 C 22,2 C 24,3 C 27,1 C 27,1 C 2,3 C 47 % 52 % 61 % 1013,3 hPa 0,0 l/m 5,1 km/h (1 Bft) NO 45 0 min 1,1 UV-I 12,7 C 27,1 C 4,0 km/h (1 Bft)
12.07.2011 15:30 24,9 C 22,2 C 24,3 C 26,8 C 26,8 C 1,9 C 47 % 52 % 50 % 1012,9 hPa 0,0 l/m 4,7 km/h (1 Bft) O 90 0 min 1,1 UV-I 12,8 C 26,8 C 10,1 km/h (2 Bft)
12.07.2011 15:35 24,6 C 22,2 C 24,1 C 26,6 C 26,6 C 2,0 C 49 % 53 % 53 % 1012,9 hPa 0,0 l/m 6,0 km/h (2 Bft) O 90 0 min 1,1 UV-I 13,2 C 26,6 C 9,8 km/h (2 Bft)
12.07.2011 15:40 24,5 C 22,3 C 23,9 C 26,1 C 26,1 C 1,6 C 50 % 55 % 42 % 1012,9 hPa 0,0 l/m 6,4 km/h (2 Bft) O-NO 67 0 min 0,8 UV-I 13,4 C 26,1 C 4,3 km/h (1 Bft)
12.07.2011 15:45 24,4 C 22,3 C 23,6 C 25,6 C 25,6 C 1,2 C 51 % 55 % 32 % 1012,9 hPa 0,0 l/m 4,7 km/h (1 Bft) N-NW 337 0 min 0,8 UV-I 13,6 C 25,6 C 2,6 km/h (1 Bft)
12.07.2011 15:50 24,6 C 22,3 C 23,9 C 26,1 C 26,1 C 1,5 C 48 % 52 % 39 % 1012,9 hPa 0,0 l/m 4,3 km/h (1 Bft) O-SO 112 0 min 0,9 UV-I 12,8 C 26,1 C 5,3 km/h (1 Bft)
12.07.2011 15:55 24,4 C 22,3 C 23,7 C 26,0 C 26,0 C 1,6 C 52 % 57 % 42 % 1012,9 hPa 0,0 l/m 2,9 km/h (1 Bft) O 90 0 min 0,8 UV-I 13,9 C 26,0 C 3,7 km/h (1 Bft)
12.07.2011 16:00 24,2 C 22,3 C 23,3 C 25,8 C 25,8 C 1,6 C 49 % 56 % 42 % 1012,9 hPa 0,0 l/m 2,4 km/h (1 Bft) O-SO 112 0 min 0,8 UV-I 12,8 C 25,8 C 7,7 km/h (2 Bft)
12.07.2011 16:10 25,1 C 22,4 C 24,1 C 27,2 C 27,2 C 2,1 C 46 % 55 % 55 % 1012,4 hPa 0,0 l/m 4,8 km/h (1 Bft) N 0 0 min 1,1 UV-I 12,7 C 27,2 C 10,5 km/h (2 Bft)
12.07.2011 16:15 25,5 C 22,5 C 24,6 C 28,2 C 28,2 C 2,7 C 46 % 51 % 71 % 1012,4 hPa 0,0 l/m 6,0 km/h (2 Bft) O 90 0 min 1,2 UV-I 13,0 C 28,2 C 10,8 km/h (2 Bft)
12.07.2011 16:20 25,6 C 22,5 C 24,8 C 28,7 C 28,7 C 3,1 C 46 % 52 % 82 % 1012,4 hPa 0,0 l/m 6,1 km/h (2 Bft) O-NO 67 0 min 1,2 UV-I 13,1 C 28,7 C 10,0 km/h (2 Bft)
12.07.2011 16:25 25,7 C 22,5 C 24,8 C 28,6 C 28,6 C 2,9 C 47 % 53 % 76 % 1012,4 hPa 0,0 l/m 5,8 km/h (2 Bft) NO 45 0 min 1,0 UV-I 13,5 C 28,6 C 7,7 km/h (2 Bft)
12.07.2011 16:30 25,5 C 22,5 C 24,7 C 28,5 C 28,5 C 3,0 C 48 % 53 % 79 % 1012,1 hPa 0,0 l/m 5,3 km/h (1 Bft) O-NO 67 0 min 1,0 UV-I 13,7 C 28,5 C 6,3 km/h (2 Bft)
12.07.2011 16:35 25,7 C 22,6 C 24,7 C 28,7 C 28,7 C 3,0 C 46 % 52 % 79 % 1012,1 hPa 0,0 l/m 4,0 km/h (1 Bft) O 90 0 min 1,1 UV-I 13,2 C 28,7 C 4,3 km/h (1 Bft)
12.07.2011 16:40 25,8 C 22,6 C 24,8 C 29,1 C 29,1 C 3,3 C 47 % 52 % 87 % 1012,1 hPa 0,0 l/m 3,7 km/h (1 Bft) NO 45 5 min 1,0 UV-I 13,6 C 29,1 C 1,9 km/h (1 Bft)
12.07.2011 16:45 25,3 C 22,6 C 24,4 C 28,6 C 28,6 C 3,3 C 48 % 53 % 87 % 1012,1 hPa 0,0 l/m 4,2 km/h (1 Bft) O-NO 67 5 min 0,8 UV-I 13,5 C 28,6 C 5,3 km/h (1 Bft)
12.07.2011 16:50 25,1 C 22,6 C 24,2 C 27,6 C 27,6 C 2,5 C 50 % 55 % 66 % 1012,1 hPa 0,0 l/m 4,2 km/h (1 Bft) NO 45 0 min 0,7 UV-I 13,9 C 27,6 C 5,3 km/h (1 Bft)
12.07.2011 16:55 25,1 C 22,6 C 24,0 C 26,5 C 26,5 C 1,4 C 47 % 52 % 37 % 1012,1 hPa 0,0 l/m 5,1 km/h (1 Bft) O-NO 67 0 min 0,6 UV-I 13,0 C 26,5 C 0,0 km/h (0 Bft)
12.07.2011 17:00 25,5 C 22,6 C 24,2 C 27,0 C 27,0 C 1,5 C 47 % 54 % 39 % 1012,1 hPa 0,0 l/m 4,3 km/h (1 Bft) O 90 0 min 0,8 UV-I 13,3 C 27,0 C 3,7 km/h (1 Bft)
12.07.2011 17:10 25,9 C 22,7 C 24,5 C 29,2 C 29,2 C 3,3 C 47 % 53 % 87 % 1012,1 hPa 0,0 l/m 2,7 km/h (1 Bft) N 0 10 min 0,8 UV-I 13,7 C 29,2 C 2,9 km/h (1 Bft)
12.07.2011 17:15 26,3 C 22,7 C 24,7 C 30,4 C 30,4 C 4,1 C 47 % 53 % 100 % 1012,1 hPa 0,0 l/m 1,8 km/h (1 Bft) O-SO 112 5 min 0,8 UV-I 14,1 C 30,4 C 4,5 km/h (1 Bft)
12.07.2011 17:20 26,2 C 22,7 C 24,6 C 30,5 C 30,5 C 4,3 C 46 % 52 % 100 % 1012,1 hPa 0,0 l/m 2,9 km/h (1 Bft) O-NO 67 5 min 0,7 UV-I 13,6 C 30,5 C 2,6 km/h (1 Bft)
12.07.2011 17:25 26,3 C 22,7 C 24,8 C 30,6 C 30,6 C 4,3 C 47 % 53 % 100 % 1012,1 hPa 0,0 l/m 4,7 km/h (1 Bft) O-NO 67 5 min 0,7 UV-I 14,1 C 30,6 C 14,0 km/h (3 Bft)
12.07.2011 17:30 26,4 C 22,8 C 25,0 C 30,4 C 30,4 C 4,0 C 46 % 52 % 100 % 1011,8 hPa 0,0 l/m 4,5 km/h (1 Bft) O-SO 112 5 min 0,7 UV-I 13,8 C 30,4 C 3,2 km/h (1 Bft)
12.07.2011 17:35 26,5 C 22,8 C 25,1 C 30,4 C 30,4 C 3,9 C 44 % 51 % 100 % 1011,8 hPa 0,0 l/m 5,3 km/h (1 Bft) O 90 5 min 0,6 UV-I 13,2 C 30,4 C 10,0 km/h (2 Bft)
12.07.2011 17:40 26,3 C 22,8 C 24,8 C 29,9 C 29,9 C 3,6 C 46 % 52 % 95 % 1011,8 hPa 0,0 l/m 5,0 km/h (1 Bft) O 90 5 min 0,5 UV-I 13,7 C 29,9 C 8,7 km/h (2 Bft)
12.07.2011 17:45 26,2 C 22,8 C 24,8 C 29,3 C 29,3 C 3,1 C 44 % 51 % 82 % 1011,8 hPa 0,0 l/m 4,7 km/h (1 Bft) S 180 0 min 0,5 UV-I 13,0 C 29,3 C 2,6 km/h (1 Bft)
12.07.2011 17:50 26,3 C 22,8 C 24,7 C 29,4 C 29,4 C 3,1 C 45 % 51 % 82 % 1011,5 hPa 0,0 l/m 3,5 km/h (1 Bft) O-NO 67 0 min 0,5 UV-I 13,4 C 29,4 C 3,5 km/h (1 Bft)
12.07.2011 17:55 26,3 C 22,8 C 24,5 C 29,1 C 29,1 C 2,8 C 45 % 52 % 74 % 1011,5 hPa 0,0 l/m 3,5 km/h (1 Bft) O-NO 67 0 min 0,5 UV-I 13,4 C 29,1 C 3,1 km/h (1 Bft)
12.07.2011 18:00 26,3 C 22,8 C 24,5 C 29,2 C 29,2 C 2,9 C 44 % 52 % 76 % 1011,5 hPa 0,0 l/m 3,9 km/h (1 Bft) O 90 0 min 0,5 UV-I 13,1 C 29,2 C 5,8 km/h (2 Bft)
12.07.2011 18:10 26,4 C 22,9 C 24,5 C 29,3 C 29,3 C 2,9 C 46 % 53 % 76 % 1010,9 hPa 0,0 l/m 4,7 km/h (1 Bft) N 0 0 min 0,4 UV-I 13,8 C 29,3 C 3,1 km/h (1 Bft)
12.07.2011 18:15 26,7 C 22,9 C 24,5 C 29,6 C 29,6 C 2,9 C 45 % 53 % 76 % 1010,9 hPa 0,0 l/m 2,3 km/h (1 Bft) O-NO 67 0 min 0,4 UV-I 13,8 C 29,6 C 2,6 km/h (1 Bft)
12.07.2011 18:20 26,7 C 22,9 C 24,5 C 29,8 C 29,8 C 3,1 C 44 % 52 % 82 % 1010,9 hPa 0,0 l/m 2,9 km/h (1 Bft) O-SO 112 0 min 0,4 UV-I 13,4 C 29,8 C 4,5 km/h (1 Bft)
12.07.2011 18:25 26,4 C 22,9 C 24,4 C 29,4 C 29,4 C 3,0 C 44 % 52 % 79 % 1010,9 hPa 0,0 l/m 3,9 km/h (1 Bft) O-NO 67 0 min 0,3 UV-I 13,1 C 29,4 C 4,3 km/h (1 Bft)
12.07.2011 18:30 26,1 C 22,9 C 24,3 C 28,8 C 28,8 C 2,7 C 44 % 52 % 71 % 1010,8 hPa 0,0 l/m 3,4 km/h (1 Bft) O-SO 112 0 min 0,3 UV-I 12,9 C 28,8 C 5,5 km/h (1 Bft)
12.07.2011 18:35 25,6 C 22,9 C 23,8 C 27,4 C 27,4 C 1,8 C 46 % 53 % 47 % 1010,8 hPa 0,0 l/m 3,1 km/h (1 Bft) O-NO 67 0 min 0,2 UV-I 13,1 C 27,4 C 6,1 km/h (2 Bft)
12.07.2011 18:40 25,3 C 22,9 C 23,7 C 26,5 C 26,5 C 1,2 C 47 % 54 % 32 % 1010,8 hPa 0,0 l/m 3,2 km/h (1 Bft) O-NO 67 0 min 0,2 UV-I 13,2 C 26,5 C 5,0 km/h (1 Bft)
12.07.2011 18:45 25,2 C 22,9 C 23,5 C 25,8 C 25,8 C 0,6 C 47 % 54 % 16 % 1010,8 hPa 0,0 l/m 3,4 km/h (1 Bft) O-NO 67 0 min 0,2 UV-I 13,1 C 25,8 C 7,6 km/h (2 Bft)
12.07.2011 18:50 25,3 C 22,9 C 23,5 C 25,6 C 25,6 C 0,3 C 49 % 55 % 8 % 1010,8 hPa 0,0 l/m 3,4 km/h (1 Bft) O 90 0 min 0,2 UV-I 13,8 C 25,6 C 1,8 km/h (1 Bft)
12.07.2011 18:55 25,4 C 22,9 C 23,5 C 26,1 C 26,1 C 0,7 C 48 % 56 % 18 % 1010,8 hPa 0,0 l/m 3,4 km/h (1 Bft) O-NO 67 0 min 0,2 UV-I 13,6 C 26,1 C 4,3 km/h (1 Bft)
12.07.2011 19:00 25,3 C 22,9 C 23,3 C 26,2 C 26,2 C 0,9 C 49 % 57 % 24 % 1010,8 hPa 0,0 l/m 2,9 km/h (1 Bft) O 90 0 min 0,2 UV-I 13,8 C 26,2 C 2,7 km/h (1 Bft)
12.07.2011 19:10 25,4 C 22,9 C 23,5 C 27,0 C 27,0 C 1,6 C 48 % 55 % 42 % 1010,6 hPa 0,0 l/m 3,9 km/h (1 Bft) N 0 0 min 0,1 UV-I 13,6 C 27,0 C 3,9 km/h (1 Bft)
12.07.2011 19:15 25,2 C 22,9 C 23,2 C 26,9 C 26,9 C 1,7 C 47 % 55 % 45 % 1010,6 hPa 0,0 l/m 3,9 km/h (1 Bft) O 90 0 min 0,1 UV-I 13,1 C 26,9 C 8,9 km/h (2 Bft)
12.07.2011 19:20 25,2 C 22,9 C 23,3 C 26,7 C 26,7 C 1,5 C 47 % 55 % 39 % 1010,6 hPa 0,0 l/m 3,9 km/h (1 Bft) S 180 0 min 0,1 UV-I 13,1 C 26,7 C 5,3 km/h (1 Bft)
12.07.2011 19:25 25,1 C 23,0 C 23,1 C 26,4 C 26,4 C 1,3 C 47 % 55 % 34 % 1010,6 hPa 0,0 l/m 3,5 km/h (1 Bft) O-NO 67 0 min 0,1 UV-I 13,0 C 26,4 C 2,4 km/h (1 Bft)
12.07.2011 19:30 25,0 C 23,0 C 23,1 C 26,3 C 26,3 C 1,3 C 48 % 56 % 34 % 1010,5 hPa 0,0 l/m 3,1 km/h (1 Bft) O 90 0 min 0,1 UV-I 13,2 C 26,3 C 4,7 km/h (1 Bft)
12.07.2011 19:35 25,1 C 23,0 C 23,1 C 25,8 C 25,8 C 0,7 C 47 % 56 % 18 % 1010,5 hPa 0,0 l/m 2,7 km/h (1 Bft) O-NO 67 0 min 0,1 UV-I 13,0 C 25,8 C 3,7 km/h (1 Bft)
12.07.2011 19:40 25,2 C 23,0 C 23,1 C 26,1 C 26,1 C 0,9 C 47 % 56 % 24 % 1010,5 hPa 0,0 l/m 3,1 km/h (1 Bft) O-NO 67 0 min 0,1 UV-I 13,1 C 26,1 C 5,6 km/h (1 Bft)
12.07.2011 19:45 25,1 C 23,0 C 23,0 C 26,4 C 26,4 C 1,3 C 49 % 57 % 34 % 1010,5 hPa 0,0 l/m 3,9 km/h (1 Bft) NO 45 0 min 0,0 UV-I 13,6 C 26,4 C 5,5 km/h (1 Bft)
12.07.2011 19:50 25,1 C 23,0 C 22,9 C 26,5 C 26,5 C 1,4 C 50 % 58 % 37 % 1010,3 hPa 0,0 l/m 3,7 km/h (1 Bft) O-NO 67 0 min 0,0 UV-I 13,9 C 26,5 C 4,0 km/h (1 Bft)
12.07.2011 19:55 24,9 C 23,0 C 22,8 C 26,3 C 26,3 C 1,4 C 52 % 60 % 37 % 1010,3 hPa 0,0 l/m 3,5 km/h (1 Bft) NO 45 0 min 0,0 UV-I 14,4 C 26,3 C 4,0 km/h (1 Bft)
12.07.2011 20:00 24,7 C 23,0 C 22,7 C 25,8 C 25,8 C 1,1 C 53 % 61 % 29 % 1010,3 hPa 0,0 l/m 3,5 km/h (1 Bft) O-NO 67 0 min 0,0 UV-I 14,5 C 25,8 C 3,9 km/h (1 Bft)
12.07.2011 20:10 24,3 C 23,0 C 22,4 C 24,4 C 24,4 C 0,1 C 53 % 62 % 3 % 1010,2 hPa 0,0 l/m 3,7 km/h (1 Bft) N 0 0 min 0,0 UV-I 14,1 C 24,4 C 4,7 km/h (1 Bft)
12.07.2011 20:15 24,0 C 23,0 C 22,3 C 23,9 C 23,7 C 0,0 C 52 % 62 % 0 % 1010,2 hPa 0,0 l/m 3,4 km/h (1 Bft) O 90 0 min 0,0 UV-I 13,5 C 23,7 C 3,5 km/h (1 Bft)
12.07.2011 20:20 23,9 C 23,0 C 22,1 C 23,7 C 23,4 C 0,0 C 53 % 62 % 0 % 1010,2 hPa 0,0 l/m 3,5 km/h (1 Bft) O-NO 67 0 min 0,0 UV-I 13,7 C 23,4 C 4,2 km/h (1 Bft)
12.07.2011 20:25 23,6 C 23,0 C 22,0 C 23,4 C 23,0 C 0,0 C 53 % 61 % 0 % 1010,2 hPa 0,0 l/m 4,2 km/h (1 Bft) O-NO 67 0 min 0,0 UV-I 13,4 C 23,0 C 4,5 km/h (1 Bft)
12.07.2011 20:30 23,5 C 23,0 C 22,0 C 23,3 C 22,8 C 0,0 C 53 % 61 % 0 % 1009,7 hPa 0,0 l/m 4,2 km/h (1 Bft) O-NO 67 0 min 0,0 UV-I 13,4 C 22,8 C 6,0 km/h (2 Bft)
12.07.2011 20:35 23,3 C 23,0 C 21,9 C 23,0 C 22,5 C 0,0 C 54 % 62 % 0 % 1009,7 hPa 0,0 l/m 4,2 km/h (1 Bft) O-NO 67 0 min 0,0 UV-I 13,5 C 22,5 C 4,7 km/h (1 Bft)
12.07.2011 20:40 23,2 C 23,0 C 21,7 C 22,9 C 22,3 C 0,0 C 54 % 62 % 0 % 1009,7 hPa 0,0 l/m 4,3 km/h (1 Bft) O-SO 112 0 min 0,0 UV-I 13,4 C 22,3 C 5,0 km/h (1 Bft)
12.07.2011 20:45 23,1 C 23,0 C 21,6 C 22,8 C 22,1 C 0,0 C 55 % 62 % 0 % 1009,7 hPa 0,0 l/m 4,3 km/h (1 Bft) O-NO 67 0 min 0,0 UV-I 13,6 C 22,1 C 3,9 km/h (1 Bft)
12.07.2011 20:50 23,1 C 23,0 C 21,5 C 22,7 C 22,0 C 0,0 C 56 % 62 % 0 % 1009,6 hPa 0,0 l/m 4,2 km/h (1 Bft) O-NO 67 0 min 0,0 UV-I 13,8 C 22,0 C 5,0 km/h (1 Bft)
12.07.2011 20:55 22,7 C 23,0 C 21,2 C 22,3 C 21,6 C 0,0 C 57 % 64 % 0 % 1009,6 hPa 0,0 l/m 3,9 km/h (1 Bft) NO 45 0 min 0,0 UV-I 13,7 C 21,6 C 4,3 km/h (1 Bft)
12.07.2011 21:00 22,4 C 23,0 C 21,1 C 22,1 C 21,4 C 0,0 C 58 % 65 % 0 % 1009,6 hPa 0,0 l/m 3,4 km/h (1 Bft) O-NO 67 0 min 0,0 UV-I 13,7 C 21,4 C 2,9 km/h (1 Bft)
12.07.2011 21:10 22,3 C 23,0 C 20,7 C 21,8 C 20,7 C 0,0 C 59 % 66 % 0 % 1010,1 hPa 0,0 l/m 1,4 km/h (1 Bft) N 0 0 min 0,0 UV-I 13,9 C 20,7 C 3,7 km/h (1 Bft)
12.07.2011 21:15 22,1 C 23,0 C 20,4 C 21,6 C 20,5 C 0,0 C 60 % 68 % 0 % 1010,1 hPa 0,0 l/m 1,1 km/h (1 Bft) NO 45 0 min 0,0 UV-I 14,0 C 20,5 C 0,0 km/h (0 Bft)
12.07.2011 21:20 22,1 C 23,0 C 20,2 C 21,5 C 20,3 C 0,0 C 61 % 68 % 0 % 1010,1 hPa 0,0 l/m 1,1 km/h (1 Bft) O-NO 67 0 min 0,0 UV-I 14,2 C 20,3 C 2,1 km/h (1 Bft)
12.07.2011 21:25 21,8 C 23,0 C 20,0 C 21,2 C 20,0 C 0,0 C 61 % 70 % 0 % 1010,1 hPa 0,0 l/m 0,3 km/h (0 Bft) O-NO 67 0 min 0,0 UV-I 13,9 C 20,0 C 0,0 km/h (0 Bft)
12.07.2011 21:30 21,7 C 23,0 C 20,0 C 21,1 C 19,8 C 0,0 C 62 % 70 % 0 % 1010,1 hPa 0,0 l/m 0,3 km/h (0 Bft) N-NO 22 0 min 0,0 UV-I 14,1 C 19,8 C 0,0 km/h (0 Bft)
12.07.2011 21:35 21,5 C 23,1 C 19,7 C 20,9 C 19,6 C 0,0 C 61 % 71 % 0 % 1010,1 hPa 0,0 l/m 0,5 km/h (0 Bft) O-NO 67 0 min 0,0 UV-I 13,7 C 19,6 C 2,9 km/h (1 Bft)
12.07.2011 21:40 21,5 C 23,1 C 19,6 C 20,9 C 19,7 C 0,0 C 61 % 71 % 0 % 1010,1 hPa 0,0 l/m 1,0 km/h (0 Bft) O-SO 112 0 min 0,0 UV-I 13,7 C 19,7 C 0,0 km/h (0 Bft)
12.07.2011 21:45 21,5 C 23,1 C 19,6 C 20,8 C 19,5 C 0,0 C 64 % 71 % 0 % 1010,1 hPa 0,0 l/m 0,5 km/h (0 Bft) NO 45 0 min 0,0 UV-I 14,4 C 19,5 C 0,0 km/h (0 Bft)
12.07.2011 21:50 21,3 C 23,1 C 19,5 C 20,7 C 19,4 C 0,0 C 62 % 71 % 0 % 1009,9 hPa 0,0 l/m 0,0 km/h (0 Bft) N-NO 22 0 min 0,0 UV-I 13,7 C 19,4 C 0,0 km/h (0 Bft)
12.07.2011 21:55 21,2 C 23,1 C 19,5 C 20,5 C 19,2 C 0,0 C 61 % 71 % 0 % 1009,9 hPa 0,0 l/m 0,0 km/h (0 Bft) NO 45 0 min 0,0 UV-I 13,4 C 19,2 C 0,0 km/h (0 Bft)
12.07.2011 22:00 21,2 C 23,1 C 19,3 C 20,5 C 19,2 C 0,0 C 62 % 72 % 0 % 1009,9 hPa 0,0 l/m 0,0 km/h (0 Bft) N-NO 22 0 min 0,0 UV-I 13,6 C 19,2 C 0,0 km/h (0 Bft)
12.07.2011 22:10 21,1 C 23,1 C 19,1 C 20,4 C 18,9 C 0,0 C 64 % 72 % 0 % 1009,8 hPa 0,0 l/m 0,0 km/h (0 Bft) N 0 0 min 0,0 UV-I 14,0 C 18,9 C 0,0 km/h (0 Bft)
12.07.2011 22:15 20,9 C 23,1 C 19,1 C 20,2 C 18,8 C 0,0 C 65 % 74 % 0 % 1009,8 hPa 0,0 l/m 0,0 km/h (0 Bft) NO 45 0 min 0,0 UV-I 14,1 C 18,8 C 0,0 km/h (0 Bft)
12.07.2011 22:20 20,9 C 23,1 C 19,0 C 20,2 C 18,7 C 0,0 C 65 % 73 % 0 % 1009,8 hPa 0,0 l/m 0,0 km/h (0 Bft) NO 45 0 min 0,0 UV-I 14,1 C 18,7 C 0,0 km/h (0 Bft)
12.07.2011 22:25 20,8 C 23,1 C 18,9 C 20,1 C 18,7 C 0,0 C 65 % 74 % 0 % 1009,8 hPa 0,0 l/m 0,0 km/h (0 Bft) O-NO 67 0 min 0,0 UV-I 14,0 C 18,7 C 0,0 km/h (0 Bft)
12.07.2011 22:30 20,8 C 23,1 C 18,8 C 20,1 C 18,7 C 0,0 C 66 % 75 % 0 % 1010,1 hPa 0,0 l/m 0,0 km/h (0 Bft) O-NO 67 0 min 0,0 UV-I 14,2 C 18,7 C 0,0 km/h (0 Bft)
12.07.2011 22:35 20,7 C 23,1 C 18,8 C 20,0 C 18,7 C 0,0 C 67 % 76 % 0 % 1010,1 hPa 0,0 l/m 0,0 km/h (0 Bft) O-NO 67 0 min 0,0 UV-I 14,3 C 18,7 C 1,9 km/h (1 Bft)
12.07.2011 22:40 20,5 C 23,1 C 18,8 C 19,9 C 18,8 C 0,0 C 68 % 77 % 0 % 1010,1 hPa 0,0 l/m 0,3 km/h (0 Bft) O-NO 67 0 min 0,0 UV-I 14,4 C 18,8 C 0,0 km/h (0 Bft)
12.07.2011 22:45 20,5 C 23,1 C 18,8 C 19,9 C 18,8 C 0,0 C 69 % 77 % 0 % 1010,1 hPa 0,0 l/m 0,3 km/h (0 Bft) O-NO 67 0 min 0,0 UV-I 14,6 C 18,8 C 0,0 km/h (0 Bft)
12.07.2011 22:50 20,6 C 23,1 C 18,8 C 20,0 C 18,8 C 0,0 C 69 % 77 % 0 % 1010,5 hPa 0,0 l/m 0,0 km/h (0 Bft) N-NO 22 0 min 0,0 UV-I 14,7 C 18,8 C 0,0 km/h (0 Bft)
12.07.2011 22:55 20,7 C 23,1 C 18,8 C 20,1 C 18,9 C 0,0 C 69 % 76 % 0 % 1010,5 hPa 0,0 l/m 0,0 km/h (0 Bft) N-NO 22 0 min 0,0 UV-I 14,8 C 18,9 C 0,0 km/h (0 Bft)
12.07.2011 23:00 20,7 C 23,1 C 18,8 C 20,1 C 19,0 C 0,0 C 69 % 75 % 0 % 1010,5 hPa 0,0 l/m 0,0 km/h (0 Bft) N-NO 22 0 min 0,0 UV-I 14,8 C 19,0 C 0,0 km/h (0 Bft)
12.07.2011 23:10 20,5 C 23,1 C 18,7 C 20,0 C 19,0 C 0,0 C 69 % 77 % 0 % 1010,4 hPa 0,0 l/m 0,0 km/h (0 Bft) N 0 0 min 0,0 UV-I 14,6 C 19,0 C 0,0 km/h (0 Bft)
12.07.2011 23:15 20,5 C 23,1 C 18,7 C 20,0 C 19,1 C 0,0 C 69 % 77 % 0 % 1010,4 hPa 0,0 l/m 0,0 km/h (0 Bft) O-NO 67 0 min 0,0 UV-I 14,6 C 19,1 C 0,0 km/h (0 Bft)
12.07.2011 23:20 20,4 C 23,1 C 18,7 C 20,0 C 19,1 C 0,0 C 70 % 78 % 0 % 1010,4 hPa 0,0 l/m 0,0 km/h (0 Bft) O 90 0 min 0,0 UV-I 14,7 C 19,1 C 0,0 km/h (0 Bft)
12.07.2011 23:25 20,4 C 23,1 C 18,7 C 19,9 C 19,0 C 0,0 C 71 % 79 % 0 % 1010,4 hPa 0,0 l/m 0,0 km/h (0 Bft) W-SW 247 0 min 0,0 UV-I 15,0 C 19,0 C 0,0 km/h (0 Bft)
12.07.2011 23:30 20,5 C 23,1 C 18,7 C 20,0 C 19,0 C 0,0 C 72 % 80 % 0 % 1010,8 hPa 0,0 l/m 0,0 km/h (0 Bft) W-SW 247 0 min 0,0 UV-I 15,3 C 19,0 C 0,0 km/h (0 Bft)
12.07.2011 23:35 20,4 C 23,1 C 18,7 C 19,9 C 18,9 C 0,0 C 71 % 80 % 0 % 1010,8 hPa 0,0 l/m 0,0 km/h (0 Bft) SW 225 0 min 0,0 UV-I 15,0 C 18,9 C 0,0 km/h (0 Bft)
12.07.2011 23:40 20,3 C 23,1 C 18,7 C 19,8 C 18,8 C 0,0 C 71 % 79 % 0 % 1010,8 hPa 0,0 l/m 0,0 km/h (0 Bft) O 90 0 min 0,0 UV-I 14,9 C 18,8 C 0,0 km/h (0 Bft)
12.07.2011 23:45 20,1 C 23,1 C 18,7 C 19,6 C 18,7 C 0,0 C 74 % 82 % 0 % 1010,8 hPa 0,0 l/m 1,0 km/h (0 Bft) O-NO 67 0 min 0,0 UV-I 15,3 C 18,7 C 2,6 km/h (1 Bft)
12.07.2011 23:50 19,9 C 23,2 C 18,5 C 19,4 C 18,4 C 0,0 C 74 % 81 % 0 % 1010,2 hPa 0,0 l/m 1,8 km/h (1 Bft) O 90 0 min 0,0 UV-I 15,1 C 18,4 C 3,9 km/h (1 Bft)
12.07.2011 23:55 19,7 C 23,3 C 18,4 C 19,1 C 17,8 C 0,0 C 74 % 81 % 0 % 1010,2 hPa 0,0 l/m 3,2 km/h (1 Bft) O-NO 67 0 min 0,0 UV-I 14,9 C 17,8 C 5,3 km/h (1 Bft)
_ Min-Zeit 05:55 07:45 05:45 05:55 05:25 00:00 13:00 13:00 00:00 20:50 - 00:00 - - - 00:00 05:55 05:25 00:00
Minimum _ 13,6 C 20,8 C 12,3 C 12,6 C 10,5 C 0,0 C 44 % 49 % 0 % 1009,6 hPa - 0,0 km/h (0 Bft) - - - 0,0 UV-I 11,1 C 10,5 C 0,0 km/h (0 Bft)
_ Max-Zeit 18:15 23:55 17:35 17:25 17:25 09:40 06:10 06:35 07:35 04:30 00:00 14:35 - - 08:10 13:15 08:35 17:25 14:25
Maximum _ 26,7 C 23,3 C 25,1 C 30,6 C 30,6 C 8,9 C 86 % 92 % 100 % 1017,1 hPa 0,0 l/m 7,6 km/h
O-NO (2 Bft)
- - 10 min 2,7 UV-I 17,2 C 30,6 C 14,0 km/h
O-NO (3 Bft)
Durchschnitt _ 20,8 C 21,9 C 18,9 C 22,4 C 21,5 C 2,0 C 65 % 73 % 41 % 1014,0 hPa #0,0 l/m 2,0 km/h (1 Bft) O-NO - #6:45 h 1,1 UV-I 13,4 C 21,5 C 2,6 km/h (1 Bft)
2013 www.wetterstation-wechselburg.de